This is the latest recevied weather packets stored in our database for station/object VY2CRA-4. If no packets are shown the sender has not sent any weather packets the latest 10 day(s).
| Time | Temp. | Humidity | Pressure | Rain* | Wind** | Luminosity | Snow |
|---|---|---|---|---|---|---|---|
| 1777258658 | 5.56° C | 46% | 1019.5 hPa | 0 mm | - | - | - |
| 1777257456 | 6.11° C | 45% | 1019.4 hPa | 0 mm | - | - | - |
| 1777256256 | 6.11° C | 44% | 1019.4 hPa | 0 mm | - | - | - |
| 1777255055 | 6.67° C | 43% | 1019.3 hPa | 0 mm | - | - | - |
| 1777253854 | 7.78° C | 42% | 1019.1 hPa | 0 mm | - | - | - |
| 1777252653 | 8.33° C | 41% | 1019 hPa | 0 mm | - | - | - |
| 1777251452 | 8.89° C | 40% | 1019 hPa | 0 mm | - | - | - |
| 1777250251 | 10° C | 38% | 1018.8 hPa | 0 mm | - | - | - |
| 1777249050 | 10.56° C | 36% | 1018.6 hPa | 0 mm | - | - | - |
| 1777247849 | 11.67° C | 34% | 1018.5 hPa | 0 mm | - | - | - |
| 1777246648 | 12.78° C | 32% | 1018.2 hPa | 0 mm | - | - | - |
| 1777245447 | 13.89° C | 31% | 1017.8 hPa | 0 mm | - | - | - |
| 1777244246 | 15° C | 29% | 1017.4 hPa | 0 mm | - | - | - |
| 1777243047 | 15.56° C | 27% | 1017.1 hPa | 0 mm | - | - | - |
| 1777241846 | 16.67° C | 26% | 1017 hPa | 0 mm | - | - | - |
| 1777240645 | 17.22° C | 26% | 1016.6 hPa | 0 mm | - | - | - |
| 1777239443 | 17.22° C | 26% | 1016.5 hPa | 0 mm | - | - | - |
| 1777238242 | 17.22° C | 26% | 1016.2 hPa | 0 mm | - | - | - |
| 1777237041 | 17.22° C | 26% | 1016.2 hPa | 0 mm | - | - | - |
| 1777235842 | 17.22° C | 26% | 1016.1 hPa | 0 mm | - | - | - |
| 1777234639 | 17.22° C | 26% | 1015.9 hPa | 0 mm | - | - | - |
| 1777233438 | 17.22° C | 26% | 1015.7 hPa | 0 mm | - | - | - |
| 1777232240 | 17.22° C | 27% | 1015.5 hPa | 0 mm | - | - | - |
| 1777229835 | 17.22° C | 27% | 1015.2 hPa | 0 mm | - | - | - |
| 1777228636 | 16.67° C | 27% | 1015.1 hPa | 0 mm | - | - | - |
* Rain since midnight (hover to see other rain measurements)
** Current wind speed in m/s (hover to see current wind gust speed)